When you browse on this site, cookies collect data to enhance your experience and personalize the content and advertising you see.
Visit our Privacy Policy to learn more. By continuing to use the site, you agree to this use of cookies and data.
  • In France
  • List of Countries
  • For 7 days
  • Water Temperature
  • Satellite Maps
  • Weather Map
  • Weather Widgets
  • user-avatar
    Login

    Hourly Weather Bijeljina

    Today, 21 March, Thursday

    Time Temperature Precipitation Wind Pressure Humidity
    00:00 +7°C° 0 mm 1 mps 767 mmHg 59%
    01:00 +6°C° 0 mm 1 mps 767 mmHg 61%
    02:00 +6°C° 0 mm 1 mps 767 mmHg 63%
    03:00 +5°C° 0 mm 1 mps 767 mmHg 64%
    04:00 +5°C° 0 mm 1 mps 767 mmHg 66%
    05:00 +5°C° 0 mm 1 mps 767 mmHg 65%
    06:00 +5°C° 0 mm 1 mps 767 mmHg 64%
    07:00 +6°C° 0 mm 1 mps 768 mmHg 63%
    08:00 +8°C° 0 mm 1 mps 768 mmHg 57%
    09:00 +10°C° 0 mm 1 mps 767 mmHg 50%
    10:00 +11°C° 0 mm 1 mps 767 mmHg 44%
    11:00 +12°C° 0 mm 2 mps 767 mmHg 41%
    12:00 +13°C° 0 mm 2 mps 766 mmHg 38%
    13:00 +14°C° 0 mm 2 mps 766 mmHg 35%
    14:00 +14°C° 0 mm 2 mps 766 mmHg 35%
    15:00 +15°C° 0 mm 2 mps 765 mmHg 35%
    16:00 +15°C° 0 mm 2 mps 765 mmHg 34%
    17:00 +13°C° 0 mm 2 mps 765 mmHg 38%
    18:00 +12°C° 0 mm 2 mps 765 mmHg 42%
    19:00 +10°C° 0 mm 1 mps 766 mmHg 46%
    20:00 +9°C° 0 mm 1 mps 766 mmHg 47%
    21:00 +9°C° 0 mm 1 mps 766 mmHg 49%
    22:00 +8°C° 0 mm 1 mps 766 mmHg 51%
    23:00 +7°C° 0 mm 0 mps 766 mmHg 52%

    Tomorrow, 22 March, Friday

    Time Temperature Precipitation Wind Pressure Humidity
    00:00 +6°C° 0 mm 0 mps 766 mmHg 53%
    01:00 +6°C° 0 mm 0 mps 766 mmHg 54%
    02:00 +6°C° 0 mm 0 mps 766 mmHg 55%
    03:00 +5°C° 0 mm 0 mps 766 mmHg 56%
    04:00 +5°C° 0 mm 0 mps 766 mmHg 57%
    05:00 +5°C° 0 mm 0 mps 766 mmHg 58%
    06:00 +6°C° 0 mm 0 mps 766 mmHg 58%
    07:00 +7°C° 0 mm 0 mps 766 mmHg 58%
    08:00 +8°C° 0 mm 0 mps 766 mmHg 52%
    09:00 +11°C° 0 mm 1 mps 766 mmHg 46%
    10:00 +13°C° 0 mm 1 mps 765 mmHg 41%
    11:00 +14°C° 0 mm 1 mps 765 mmHg 38%
    12:00 +15°C° 0 mm 2 mps 765 mmHg 36%
    13:00 +16°C° 0 mm 2 mps 764 mmHg 34%
    14:00 +16°C° 0 mm 2 mps 764 mmHg 35%
    15:00 +17°C° 0 mm 2 mps 763 mmHg 36%
    16:00 +17°C° 0 mm 2 mps 763 mmHg 37%
    17:00 +15°C° 0 mm 1 mps 763 mmHg 42%
    18:00 +14°C° 0 mm 1 mps 763 mmHg 46%
    19:00 +11°C° 0 mm 0 mps 763 mmHg 51%
    20:00 +11°C° 0 mm 0 mps 763 mmHg 53%
    21:00 +11°C° 0 mm 1 mps 763 mmHg 55%
    22:00 +11°C° 0 mm 1 mps 763 mmHg 57%
    23:00 +10°C° 0 mm 1 mps 763 mmHg 58%

    Day after tomorrow, 23 March, Saturday

    Time Temperature Precipitation Wind Pressure Humidity
    00:00 +10°C° 0 mm 1 mps 763 mmHg 60%
    01:00 +9°C° 0 mm 1 mps 763 mmHg 61%
    02:00 +9°C° 0 mm 1 mps 763 mmHg 63%
    03:00 +9°C° 0 mm 1 mps 763 mmHg 64%
    04:00 +8°C° 0 mm 1 mps 763 mmHg 66%
    05:00 +9°C° 0 mm 1 mps 763 mmHg 66%
    06:00 +9°C° 0 mm 1 mps 763 mmHg 67%
    07:00 +10°C° 0 mm 1 mps 763 mmHg 67%
    08:00 +10°C° 0 mm 2 mps 762 mmHg 64%
    09:00 +13°C° 0 mm 2 mps 762 mmHg 61%
    10:00 +15°C° 0 mm 2 mps 762 mmHg 58%
    11:00 +16°C° 0 mm 2 mps 761 mmHg 55%
    12:00 +17°C° 0 mm 2 mps 761 mmHg 52%
    13:00 +18°C° 0 mm 2 mps 761 mmHg 48%
    14:00 +18°C° 0 mm 2 mps 760 mmHg 48%
    15:00 +19°C° 0 mm 2 mps 760 mmHg 47%
    16:00 +20°C° 0 mm 1 mps 760 mmHg 46%
    17:00 +18°C° 0 mm 1 mps 760 mmHg 51%
    18:00 +16°C° 0 mm 1 mps 760 mmHg 55%
    19:00 +13°C° 0 mm 0 mps 760 mmHg 60%
    20:00 +12°C° 0 mm 0 mps 760 mmHg 61%
    21:00 +12°C° 0 mm 0 mps 761 mmHg 63%
    22:00 +11°C° 0 mm 0 mps 761 mmHg 64%
    23:00 +10°C° 0 mm 0 mps 761 mmHg 65%

    24 March, Sunday

    Time Temperature Precipitation Wind Pressure Humidity
    00:00 +10°C° 0 mm 0 mps 761 mmHg 67%
    01:00 +9°C° 0 mm 0 mps 761 mmHg 69%
    02:00 +10°C° 0 mm 1 mps 761 mmHg 71%
    03:00 +10°C° 0 mm 1 mps 761 mmHg 73%
    04:00 +9°C° 0 mm 1 mps 760 mmHg 76%
    05:00 +10°C° 0 mm 1 mps 761 mmHg 75%
    06:00 +10°C° 0 mm 1 mps 761 mmHg 74%
    07:00 +11°C° 0 mm 1 mps 761 mmHg 73%
    08:00 +12°C° 0 mm 0 mps 761 mmHg 63%
    09:00 +14°C° 0 mm 0 mps 760 mmHg 54%
    10:00 +16°C° 0 mm 0 mps 760 mmHg 44%
    11:00 +19°C° 0 mm 1 mps 760 mmHg 39%
    12:00 +20°C° 0 mm 1 mps 759 mmHg 35%
    13:00 +21°C° 0 mm 1 mps 759 mmHg 30%
    14:00 +21°C° 0 mm 1 mps 758 mmHg 31%
    15:00 +21°C° 0 mm 1 mps 757 mmHg 31%
    16:00 +21°C° 0 mm 1 mps 757 mmHg 31%
    17:00 +19°C° 0 mm 1 mps 757 mmHg 36%
    18:00 +16°C° 0 mm 1 mps 757 mmHg 41%
    19:00 +14°C° 0 mm 1 mps 757 mmHg 46%
    20:00 +14°C° 0 mm 1 mps 757 mmHg 48%
    21:00 +13°C° 0 mm 1 mps 757 mmHg 51%
    22:00 +12°C° 0 mm 1 mps 757 mmHg 53%
    23:00 +12°C° 0 mm 1 mps 757 mmHg 54%

    25 March, Monday

    Time Temperature Precipitation Wind Pressure Humidity
    00:00 +12°C° 0 mm 1 mps 757 mmHg 55%
    01:00 +11°C° 0 mm 1 mps 757 mmHg 56%
    02:00 +11°C° 0 mm 1 mps 757 mmHg 57%
    03:00 +9°C° 0 mm 2 mps 757 mmHg 58%
    04:00 +9°C° 0 mm 2 mps 757 mmHg 58%
    05:00 +9°C° 0 mm 2 mps 757 mmHg 60%
    06:00 +10°C° 0 mm 2 mps 758 mmHg 63%
    07:00 +10°C° 0 mm 2 mps 758 mmHg 65%
    08:00 +11°C° 0.1 mm 3 mps 758 mmHg 69%
    09:00 +11°C° 0.1 mm 3 mps 758 mmHg 73%
    10:00 +12°C° 0.1 mm 4 mps 758 mmHg 77%
    11:00 +11°C° 0.3 mm 4 mps 758 mmHg 77%
    12:00 +11°C° 0.3 mm 4 mps 758 mmHg 77%
    13:00 +11°C° 0.3 mm 4 mps 758 mmHg 78%
    14:00 +12°C° 0 mm 4 mps 757 mmHg 72%
    15:00 +12°C° 0 mm 4 mps 757 mmHg 66%
    16:00 +12°C° 0 mm 4 mps 757 mmHg 60%
    17:00 +12°C° 0 mm 3 mps 758 mmHg 62%
    18:00 +11°C° 0 mm 3 mps 758 mmHg 63%
    19:00 +10°C° 0 mm 3 mps 758 mmHg 64%
    20:00 +10°C° 0 mm 3 mps 759 mmHg 64%
    21:00 +9°C° 0 mm 2 mps 759 mmHg 63%
    22:00 +9°C° 0 mm 2 mps 759 mmHg 63%
    23:00 +8°C° 0 mm 2 mps 759 mmHg 65%

    26 March, Tuesday

    Time Temperature Precipitation Wind Pressure Humidity
    00:00 +7°C° 0 mm 2 mps 759 mmHg 67%
    01:00 +6°C° 0 mm 2 mps 759 mmHg 69%
    02:00 +6°C° 0 mm 2 mps 759 mmHg 71%
    03:00 +5°C° 0 mm 2 mps 759 mmHg 72%
    04:00 +5°C° 0 mm 2 mps 759 mmHg 74%
    05:00 +5°C° 0 mm 3 mps 759 mmHg 70%
    06:00 +5°C° 0 mm 3 mps 759 mmHg 66%
    07:00 +6°C° 0 mm 4 mps 759 mmHg 63%
    08:00 +7°C° 0 mm 5 mps 759 mmHg 57%
    09:00 +8°C° 0 mm 5 mps 758 mmHg 51%
    10:00 +10°C° 0 mm 6 mps 758 mmHg 45%
    11:00 +10°C° 0 mm 6 mps 758 mmHg 45%
    12:00 +10°C° 0 mm 6 mps 757 mmHg 45%
    13:00 +11°C° 0 mm 6 mps 757 mmHg 45%
    14:00 +10°C° 0.2 mm 6 mps 756 mmHg 49%
    15:00 +10°C° 0.2 mm 7 mps 756 mmHg 54%
    16:00 +9°C° 0.2 mm 7 mps 756 mmHg 58%
    17:00 +8°C° 0.2 mm 6 mps 756 mmHg 61%
    18:00 +7°C° 0.2 mm 5 mps 757 mmHg 65%
    19:00 +6°C° 0.2 mm 4 mps 758 mmHg 68%
    20:00 +5°C° 0.1 mm 4 mps 758 mmHg 66%
    21:00 +4°C° 0.1 mm 4 mps 759 mmHg 65%
    22:00 +3°C° 0.1 mm 4 mps 760 mmHg 63%
    23:00 +3°C° 0 mm 3 mps 760 mmHg 64%
    Show more